This demonstration page uses our WeatherBlox Daily Observations layout. Learn more.

Hourly Observations for December 17, 2017

Temp ( °F °C ) Dew Point ( °F °C ) Humidity (%) Winds ( mph kmh ) Pressure ( in mb ) Visibility ( mi km ) Precip ( " mm )
12:15 am 00:15 Clear 32 -0.2 31 -0.5 98 98 NNE 16 26 29.97 1015 10 16.09344 0 0
12:35 am 00:35 Clear 32 -0.1 31 -0.5 97 97 NNE 12 19 30.03 1017 10 16.09344 0 0
12:55 am 00:55 Clear 32 -0.2 31 -0.5 98 98 NNE 12 19 30.03 1017 10 16.09344 0 0
1:15 am 01:15 Clear 32 -0.1 31 -0.5 97 97 N 14 22 30.03 1017 10 16.09344 0 0
1:35 am 01:35 Clear 32 0 31 -0.4 97 97 NNE 13 20 30.03 1017 10 16.09344 0 0
1:55 am 01:55 Clear 32 0 31 -0.5 96 96 NNE 9 15 30.06 1018 10 16.09344 0 0
2:15 am 02:15 Clear 32 -0.1 31 -0.5 97 97 N 14 22 30.03 1017 10 16.09344 0 0
2:35 am 02:35 Clear 31 -0.5 31 -0.8 98 98 N 14 22 30.03 1017 10 16.09344 0 0
2:55 am 02:55 Clear 31 -0.3 31 -0.7 97 97 N 14 22 30.03 1017 10 16.09344 0 0
3:15 am 03:15 Clear 31 -0.3 31 -0.7 97 97 NNE 13 20 30.03 1017 10 16.09344 0 0
3:35 am 03:35 Clear 31 -0.5 30 -0.9 97 97 N 12 19 30.03 1017 10 16.09344 0 0
3:55 am 03:55 Clear 31 -0.5 31 -0.8 98 98 NNE 10 17 30.03 1017 10 16.09344 0 0
4:15 am 04:15 Clear 30 -1 30 -1.2 99 99 N 10 17 30.06 1018 10 16.09344 0 0
4:35 am 04:35 Clear 30 -1.1 30 -1.3 99 99 NNE 9 15 30.06 1018 10 16.09344 0 0
4:55 am 04:55 Clear 30 -1.2 29 -1.5 98 98 N 10 17 30.06 1018 10 16.09344 0 0
5:15 am 05:15 Clear 30 -1.3 29 -1.5 99 99 N 12 19 30.09 1019 10 16.09344 0 0
5:35 am 05:35 Clear 29 -1.7 28 -2 98 98 N 9 15 30.09 1019 10 16.09344 0 0
5:55 am 05:55 Clear 28 -2.1 28 -2.2 99 99 N 9 15 30.09 1019 10 16.09344 0 0
6:15 am 06:15 Clear 28 -2.5 27 -2.6 99 99 N 9 15 30.09 1019 10 16.09344 0 0
6:35 am 06:35 Clear 27 -2.7 27 -2.7 100 100 N 8 13 30.09 1019 10 16.09344 0 0
6:55 am 06:55 Clear 26 -3.1 26 -3.1 100 100 N 8 13 30.09 1019 10 16.09344 0 0
7:15 am 07:15 Clear 27 -3 27 -3 100 100 NNW 7 11 30.12 1020 10 16.09344 0 0
7:35 am 07:35 Clear 27 -2.8 27 -2.8 100 100 NNW 8 13 30.12 1020 10 16.09344 0 0
7:55 am 07:55 Sunny 27 -3 27 -3 100 100 NNW 9 15 30.15 1021 10 16.09344 0 0
8:15 am 08:15 Sunny 26 -3.2 26 -3.3 99 99 NNW 9 15 30.18 1022 10 16.09344 0 0
8:35 am 08:35 Sunny 27 -2.7 27 -2.8 99 99 N 8 13 30.12 1020 10 16.09344 0 0
8:55 am 08:55 Sunny 29 -1.6 29 -1.9 98 98 N 9 15 30.12 1020 10 16.09344 0 0
9:15 am 09:15 Sunny 30 -1.1 29 -1.5 97 97 N 10 17 30.12 1020 10 16.09344 0 0
9:35 am 09:35 Sunny 31 -0.3 31 -0.8 96 96 N 9 15 30.15 1021 10 16.09344 0 0
9:55 am 09:55 Sunny 33 0.3 32 -0.1 97 97 N 12 19 30.12 1020 10 16.09344 0 0
10:15 am 10:15 Sunny 34 1.1 32 0 92 92 N 9 15 30.15 1021 10 16.09344 0 0
10:35 am 10:35 Partly Cloudy 35 1.7 32 0 89 89 N 13 20 30.15 1021 10 16.09344 0 0
10:55 am 10:55 Partly Cloudy 36 2.2 32 0 86 86 NNE 13 20 30.12 1020 10 16.09344 0 0
11:15 am 11:15 Mostly Cloudy 37 2.8 32 -0.1 81 81 N 12 19 30.12 1020 10 16.09344 0 0
11:35 am 11:35 Mostly Cloudy 38 3.3 32 -0.1 79 79 N 9 15 30.09 1019 10 16.09344 0 0
11:55 am 11:55 Partly Cloudy 38 3.6 32 0 78 78 NNE 10 17 30.06 1018 10 16.09344 0 0
12:15 pm 12:15 Partly Cloudy 40 4.3 32 0.1 74 74 N 12 19 30.06 1018 10 16.09344 0 0
12:35 pm 12:35 Mostly Cloudy 39 3.7 32 -0.1 76 76 NNW 9 15 30.06 1018 10 16.09344 0 0
12:55 pm 12:55 Mostly Cloudy 39 4.1 32 0 75 75 NNW 10 17 30.03 1017 10 16.09344 0 0
1:15 pm 13:15 Mostly Cloudy 39 3.8 32 -0.1 76 76 NNW 8 13 30.03 1017 10 16.09344 0 0
1:35 pm 13:35 Mostly Cloudy 40 4.5 32 0 73 73 NNW 6 9 30.03 1017 10 16.09344 0 0
1:55 pm 13:55 Mostly Cloudy 40 4.5 32 0.1 73 73 WNW 10 17 30.03 1017 10 16.09344 0 0
2:15 pm 14:15 Cloudy 40 4.3 32 0 74 74 NNW 7 11 30.03 1017 10 16.09344 0 0
2:35 pm 14:35 Cloudy 41 4.8 32 0 71 71 NNW 5 7 30.03 1017 10 16.09344 0 0
2:55 pm 14:55 Cloudy 40 4.5 32 -0.1 72 72 WNW 7 11 30.03 1017 10 16.09344 0 0
3:15 pm 15:15 Cloudy 40 4.5 32 -0.1 72 72 NW 5 7 30.03 1017 10 16.09344 0 0
3:35 pm 15:35 Cloudy 40 4.5 32 0 73 73 WNW 6 9 30.03 1017 10 16.09344 0 0
3:55 pm 15:55 Cloudy 40 4.5 32 0 73 73 NW 5 7 30.03 1017 10 16.09344 0 0
4:15 pm 16:15 Cloudy 40 4.5 32 -0.1 72 72 NNW 5 7 30.03 1017 10 16.09344 0 0
4:35 pm 16:35 Cloudy 40 4.4 32 -0.1 73 73 WNW 6 9 30.03 1017 10 16.09344 0 0
4:55 pm 16:55 Cloudy 39 4.1 32 -0.2 74 74 NW 5 7 30.03 1017 10 16.09344 0 0
5:15 pm 17:15 Cloudy 39 3.8 31 -0.3 75 75 NW 5 7 30.03 1017 10 16.09344 0 0
5:35 pm 17:35 Cloudy 38 3.5 31 -0.5 75 75 NW 3 6 30.03 1017 10 16.09344 0 0
5:55 pm 17:55 Cloudy 37 2.9 31 -0.8 77 77 NW 3 6 30.03 1017 10 16.09344 0 0
6:15 pm 18:15 Cloudy 36 2.1 30 -1 80 80 Calm 30.06 1018 10 16.09344 0 0
6:35 pm 18:35 Mostly Cloudy 35 1.4 29 -1.4 82 82 Calm 30.06 1018 10 16.09344 0 0
6:55 pm 18:55 Mostly Cloudy 34 1.3 29 -1.4 82 82 Calm 30.06 1018 10 16.09344 0 0
7:15 pm 19:15 Clear 32 0.1 28 -2.2 85 85 Calm 30.06 1018 10 16.09344 0 0
7:35 pm 19:35 Clear 32 0 29 -1.7 88 88 Calm 30.06 1018 10 16.09344 0 0
7:55 pm 19:55 Clear 28 -2 26 -3.2 92 92 S 3 6 30.12 1020 10 16.09344 0 0
8:15 pm 20:15 Clear 29 -1.6 27 -2.8 92 92 SSW 3 6 30.12 1020 10 16.09344 0 0
8:35 pm 20:35 Clear 28 -2.1 26 -3.3 92 92 S 5 7 30.12 1020 10 16.09344 0 0
8:55 pm 20:55 Clear 31 -0.8 29 -1.6 94 94 SSW 6 9 30.12 1020 10 16.09344 0 0
9:15 pm 21:15 Clear 29 -1.5 28 -2.5 93 93 SSW 6 9 30.12 1020 10 16.09344 0 0
9:35 pm 21:35 Clear 28 -2 27 -3 93 93 SSW 5 7 30.12 1020 10 16.09344 0 0
9:55 pm 21:55 Clear 28 -2 27 -2.7 95 95 SSW 6 9 30.12 1020 10 16.09344 0 0
10:15 pm 22:15 Clear 29 -1.6 28 -2.4 94 94 SSW 7 11 30.12 1020 10 16.09344 0 0
10:35 pm 22:35 Clear 29 -1.9 27 -2.7 94 94 SSW 6 9 30.12 1020 10 16.09344 0 0
10:55 pm 22:55 Clear 28 -2.1 27 -2.8 95 95 SW 7 11 30.12 1020 10 16.09344 0 0
11:15 pm 23:15 Clear 28 -2.4 27 -3 96 96 SW 8 13 30.12 1020 10 16.09344 0 0
11:35 pm 23:35 Clear 27 -2.6 26 -3.1 96 96 SW 7 11 30.09 1019 10 16.09344 0 0
11:55 pm 23:55 Clear 28 -2.3 27 -2.8 96 96 SW 6 9 30.09 1019 10 16.09344 0 0

Powered by AerisWeather